This is the latest recevied weather packets stored in our database for station/object DO1BDB-12. If no packets are shown the sender has not sent any weather packets the latest 10 day(s).
| Time | Temp. | Humidity | Pressure | Rain* | Wind** | Luminosity | Snow |
|---|---|---|---|---|---|---|---|
| 1777539979 | 22.22° C | 29% | 103.2 hPa | - | - | - | - |
| 1777539913 | 22.22° C | 27% | 103.2 hPa | - | - | - | - |
| 1777539848 | 23.33° C | 26% | 103.2 hPa | - | - | - | - |
| 1777539782 | 25° C | 28% | 103.2 hPa | - | - | - | - |
| 1777539716 | 23.89° C | 27% | 103.2 hPa | - | - | - | - |
| 1777539650 | 22.22° C | 29% | 103.2 hPa | - | - | - | - |
| 1777539584 | 21.11° C | 31% | 103.2 hPa | - | - | - | - |
| 1777539518 | 21.11° C | 29% | 103.2 hPa | - | - | - | - |
| 1777539453 | 22.22° C | 30% | 103.2 hPa | - | - | - | - |
| 1777539387 | 21.11° C | 31% | 103.2 hPa | - | - | - | - |
| 1777539321 | 20° C | 32% | 103.2 hPa | - | - | - | - |
| 1777539255 | 19.44° C | 32% | 103.2 hPa | - | - | - | - |
| 1777539189 | 20.56° C | 34% | 103.2 hPa | - | - | - | - |
| 1777539123 | 18.89° C | 35% | 103.2 hPa | - | - | - | - |
| 1777539057 | 19.44° C | 32% | 103.2 hPa | - | - | - | - |
| 1777538992 | 20° C | 31% | 103.2 hPa | - | - | - | - |
| 1777538926 | 20.56° C | 32% | 103.2 hPa | - | - | - | - |
| 1777538860 | 20° C | 33% | 103.2 hPa | - | - | - | - |
| 1777538794 | 20° C | 32% | 103.2 hPa | - | - | - | - |
| 1777538728 | 19.44° C | 33% | 103.2 hPa | - | - | - | - |
| 1777538662 | 20° C | 32% | 103.2 hPa | - | - | - | - |
| 1777538597 | 20° C | 32% | 103.2 hPa | - | - | - | - |
| 1777538531 | 19.44° C | 32% | 103.3 hPa | - | - | - | - |
| 1777538465 | 19.44° C | 31% | 103.2 hPa | - | - | - | - |
| 1777538399 | 20° C | 32% | 103.2 hPa | - | - | - | - |
* Rain since midnight (hover to see other rain measurements)
** Current wind speed in m/s (hover to see current wind gust speed)